This is the latest recevied weather packets stored in our database for station/object K8JCL-13. If no packets are shown the sender has not sent any weather packets the latest 1 day(s).
| Time | Temp. | Humidity | Pressure | Rain* | Wind** | Luminosity | Snow |
|---|---|---|---|---|---|---|---|
| 1778044364 | 8.33° C | 99% | 1008.5 hPa | 4.32 mm | - | 0 W/m² | - |
| 1778044062 | 8.33° C | 99% | 1008.4 hPa | 3.05 mm | - | 0 W/m² | - |
| 1778043759 | 8.33° C | 99% | 1008.3 hPa | 3.05 mm | - | 0 W/m² | - |
| 1778043455 | 8.33° C | 99% | 1008 hPa | 3.05 mm | - | 0 W/m² | - |
| 1778043152 | 8.33° C | 99% | 1008 hPa | 3.56 mm | - | 0 W/m² | - |
| 1778042850 | 8.33° C | 99% | 1008.1 hPa | 4.83 mm | - | 0 W/m² | - |
| 1778042547 | 8.33° C | 99% | 1007.9 hPa | 3.05 mm | - | 0 W/m² | - |
| 1778042244 | 8.89° C | 99% | 1008 hPa | 0 mm | - | 0 W/m² | - |
| 1778041640 | 8.89° C | 99% | 1007.9 hPa | 3.05 mm | - | 0 W/m² | - |
| 1778040733 | 9.44° C | 99% | 1008 hPa | 10.67 mm | - | 0 W/m² | - |
| 1778040431 | 9.44° C | 99% | 1007.9 hPa | 10.67 mm | - | 0 W/m² | - |
| 1778040127 | 9.44° C | 99% | 1007.8 hPa | 4.83 mm | - | 0 W/m² | - |
| 1778039824 | 9.44° C | 99% | 1007.7 hPa | 3.05 mm | - | 0 W/m² | - |
| 1778039521 | 9.44° C | 99% | 1007.5 hPa | 3.05 mm | - | 0 W/m² | - |
| 1778039212 | 9.44° C | 99% | 1007.5 hPa | 0 mm | - | 0 W/m² | - |
| 1778038607 | 10° C | 99% | 1007.6 hPa | 0 mm | - | 0 W/m² | - |
| 1778038001 | 10° C | 99% | 1007.5 hPa | 0 mm | - | 0 W/m² | - |
| 1778037698 | 10° C | 99% | 1007.3 hPa | 0 mm | - | 0 W/m² | - |
| 1778037394 | 10° C | 99% | 1007.6 hPa | 0 mm | - | 0 W/m² | - |
| 1778036487 | 10° C | 99% | 1007.4 hPa | 1.27 mm | - | 0 W/m² | - |
| 1778036184 | 10° C | 99% | 1007.8 hPa | 1.27 mm | - | 0 W/m² | - |
| 1778035578 | 10° C | 99% | 1007.7 hPa | 3.05 mm | - | 0 W/m² | - |
| 1778035273 | 10° C | 99% | 1007.8 hPa | 3.05 mm | - | 0 W/m² | - |
| 1778034970 | 10° C | 99% | 1008.1 hPa | 1.78 mm | - | 0 W/m² | - |
| 1778034364 | 10° C | 99% | 1008.4 hPa | 1.78 mm | - | 0 W/m² | - |
* Rain latest hour (hover to see other rain measurements)
** Current wind speed in m/s (hover to see current wind gust speed)